Погода в Кундуй

Россия / Иркутская область     54°20′35″N   101°15′40″E
темп.,
°C
ветер,
м/с
пор.,
м/с
влажн.,
%
обл.,
%
осадки,
мм/ч
давл.,
гПа
погр.,
м
24 сентября, пт
пт2423:00+6вюв2872100 0.0 1017208
02:00+6сз2274100 0.0 101863
05:00+4сз2385100 0.0 101875
08:00+4с3891100 0.0 1019355
11:00+5с3484100 0.0 1019649
14:00+5ссз4689100 0.1 1020706
17:00+5ссз4686100 0.1 1021655
20:00+4ссз3689100 0.2 1023549
25 сентября, сб
сб2523:00+4ссз3693100 0.4 1024517
02:00+4з359398 0.6 1025453
05:00+1сз2597100 0.0 1026111
08:00+1ссз2496100 0.0 1028140
11:00+5ссв237197 0.0 1026950
14:00+6ссз2358100 0.1 10251314
17:00+6ссз345562 0.0 1024972
20:00+2сз23769 0.0 102544
26 сентября, вс
вс2623:00+1с227772 0.0 102524
02:00−1всв118535 0.0 102411
05:00−2всв119131 0.0 102310
08:00−1всв128684 0.0 102346
11:00+6в225522 0.0 1021841
14:00+8св214582 0.0 10181445
17:00+7ссв2246100 0.0 10171368
20:00+3ссз1162100 0.0 101811
27 сентября, пн
пн2723:000св237441 0.0 101852
02:00−1ссв22817 0.0 101714
05:00−2ссз228635 0.0 101736
08:00−2сз378715 0.0 1018167
11:00+4сз465992 0.0 10181055
14:00+4сз5766100 0.1 10181184
17:00+4сз476691 0.2 10191126
20:00+1сз4108295 0.3 1021438
28 сентября, вт
вт2823:00+1зсз51087100 0.0 1022684
02:000зсз51092100 0.1 1022745
05:000зсз51088100 0.3 1022958
08:000з4108989 0.3 1022855
11:00+2зсз5876100 0.2 10211055
14:00+4сз5760100 0.4 10201468
17:00+4ссз4664100 0.1 10201074
20:00+1ссз2385100 0.1 102172